Погода в Мендзыздрое

Польша     53°55′27″N   14°26′49″E
темп.,
°C
ветер,
м/с
пор.,
м/с
влажн.,
%
обл.,
%
осадки,
мм/ч
давл.,
гПа
погр.,
м
28 февраля, вс
вс2801:00+4з689091 0.0 1035170
04:00+3з6109124 0.0 1034230
07:00+3з699515 0.0 1034235
10:00+4зсз699341 0.0 1034250
13:00+5зсз578624 0.0 1034229
16:00+4сз56870 0.0 1033162
19:00+4зсз34880 0.0 103451
22:00+4зсз34890 0.0 103431
1 марта, пн
пн101:00+4зюз34890 0.0 103530
04:00+3зюз34900 0.0 103450
07:00+3з45910 0.0 103482
10:00+4зюз45870 0.0 1034150
13:00+5зюз35770 0.0 1034154
16:00+7з35730 0.0 1033139
19:00+6з56810 0.0 103381
22:00+5з67870 0.0 1033114
2 марта, вт
вт201:00+4з57880 0.0 1033112
04:00+4з57880 0.0 1032108
07:00+4з57890 0.0 1032116
10:00+4зсз57840 0.0 1033157
13:00+6зсз45790 0.0 1033144
16:00+6сз34760 0.0 103186
19:00+5сз45770 0.0 103237
22:00+5сз34760 0.0 103235
3 марта, ср
ср301:00+4зсз33770 0.0 103222
04:00+4зюз33760 0.0 103022
07:00+4з33720 0.0 103022
10:00+5зюз33690 0.0 103075
13:00+6юз23710 0.0 1028131
16:00+7ююз22690 0.0 1026108
19:00+7ююз33694 0.0 102423
22:00+6юз458169 0.0 102351
4 марта, чт
чт401:00+5зюз458946 0.0 102062
04:00+5зюз469136 0.0 101874
07:00+4з579068 0.0 1016148
10:00+5з5689100 0.0 1014166
13:00+6з5786100 0.1 1013245
16:00+5зсз578199 0.0 1011311
19:00+4зсз588399 0.0 1011254
22:00+3зсз5787100 0.2 1012394